Location: Bailleul
(50.3375°N, 2.8513°E)
Time: 20:53:39
(UTC+00:00)

Cosmos 1408 - Pass Details

Date: 19 April 2021
Orbit: 467 x 492 km, 82.6° (Epoch: 18 May)

Event Time Altitude Azimuth Distance (km) Brightness Sun altitude
Rises 19:44:04 0° 346° (NNW) 2,523 6.9 -8.7°
Reaches altitude 10° 19:46:11 10° 341° (NNW) 1,639 6.0 -9.0°
Maximum altitude 19:49:40 52° 265° (W) 588 3.3 -9.5°
Drops below altitude 10° 19:53:07 10° 188° (S) 1,623 5.0 -9.9°
Sets 19:55:13 0° 183° (S) 2,495 5.9 -10.2°
